Location: Newark
(34.1333°N, 7.9667°W)
Time: 09:37:09
(UTC+00:00)

N. Korean satellite - Pass Details

Date: 28 September 2021
Orbit: 450 x 495 km, 97.3° (Epoch: 15 October)

Event Time Altitude Azimuth Distance (km) Brightness Sun altitude
Rises 05:17:25 0° 21° (NNE) 2,541 10.6 -14.6°
Reaches altitude 10° 05:19:36 10° 30° (NNE) 1,665 9.8 -14.2°
Maximum altitude 05:22:55 35° 98° (E) 798 8.3 -13.5°
Drops below altitude 10° 05:26:15 10° 166° (SSE) 1,674 9.4 -12.8°
Sets 05:28:26 0° 175° (S) 2,556 10.2 -12.4°
